Regional Weather Roundup
Issued by NWS Upton, NY

Current Version | Previous Version | Graphics & Text | Print | Product List | Glossary Off
Versions: 1 2 3 4 5 6 7 8 9 10 11 12 13 14 15 16 17 18 19 20 21 22 23 24 25 26 27

000
ASUS41 KOKX 281908
RWROKX

REGIONAL WEATHER ROUNDUP
NATIONAL WEATHER SERVICE NEW YORK NY
300 PM EDT TUE MAR 28 2017

NOTE: "FAIR" INDICATES FEW OR NO CLOUDS BELOW 12,000 FEET WITH NO
SIGNIFICANT WEATHER AND/OR OBSTRUCTIONS TO VISIBILITY.

NYZ071-072-176-178-NJZ106-104-282000-
NEW YORK CITY METRO AREA

CITY           SKY/WX    TMP DP  RH WIND       PRES   REMARKS
Central Park   LGT RAIN  43  42  97 VRB5      29.93F FOG
Wall St Helipt LGT RAIN  45  43  93 NE15      29.90F
LaGuardia APRT LGT RAIN  43  39  86 NE16      29.91F FOG
Kennedy INTL   LGT RAIN  48  47  96 E7        29.91F
Breezy Point     N/A     43 N/A N/A E13         N/A
Newark/Liberty CLOUDY    45  44  97 NE13      29.89F FOG
Teterboro      LGT RAIN  45  42  89 NE14G23   29.90F FOG
$$

NYZ177-179-078>081-282000-
LONG ISLAND NEW YORK

CITY           SKY/WX    TMP DP  RH WIND       PRES   REMARKS
Jones Beach      N/A     43 N/A N/A E17         N/A
Matinecock PT  NOT AVBL
Farmingdale    RAIN      46  44  93 NE6       29.92S
MacArthur/ISP  LGT RAIN  44  44 100 NE7       29.91F
Shirley        LGT RAIN  43  43 100 CALM      29.93F
Westhampton    LGT RAIN  42  40  92 E7        29.94F
East Hampton   RAIN      40  39  95 E7        29.93F
Montauk        NOT AVBL
$$

NYZ052-065-067-282000-
HUDSON VALLEY

CITY           SKY/WX    TMP DP  RH WIND       PRES   REMARKS
White Plains   LGT RAIN  42  41  96 E6        29.92F FOG
Newburgh       CLOUDY    45  45 100 E6        29.93F FOG
Montgomery     RAIN      46  44  93 E5        29.90F FOG
Poughkeepsie   HVY RAIN  43  42  97 E5        29.93F FOG
Albany         LGT RAIN  48  44  86 S10       29.91F
$$

NJZ001-105-106-008-010-013-015-019>022-104-282000-
NEW JERSEY

CITY           SKY/WX    TMP DP  RH WIND       PRES   REMARKS
Newark/Liberty CLOUDY    45  44  97 NE13      29.89F FOG
Teterboro      LGT RAIN  45  42  89 NE14G23   29.90F FOG
Caldwell       LGT RAIN  45  44  97 NE7       29.89F FOG
Somerville     CLOUDY    49  47  93 VRB5      29.84F
Linden         CLOUDY    46  44  92 NE10      29.88F FOG
Sussex         LGT RAIN  47  47 100 NE7       29.88F
Andover          N/A     47  45  93 VRB5      29.85F
Trenton        CLOUDY    50  48  93 NE12      29.84F
Millville      CLOUDY    60  60 100 E6        29.84S
Atlantic City  RAIN      54  50  86 SE10      29.86R
Wrightstown    CLOUDY    52  52  97 CALM      29.83R
Toms River     LGT RAIN  50  49  96 E8        29.85F
Belmar         CLOUDY    45  44  97 NE10      29.87F
$$

PAZ047>061-062-071-282000-
EASTERN PENNSYLVANIA

CITY           SKY/WX    TMP DP  RH WIND       PRES   REMARKS
Philadelphia   CLOUDY    53  50  89 NE5       29.85R
Allentown      LGT RAIN  51  47  86 NE7       29.85S
Scranton       LGT RAIN  52  51  97 NE13      29.83F
$$

CTZ002-004>006-009-010-012-RIZ004-006-007-MAZ004-011-015-282000-
SOUTHERN NEW ENGLAND
 IN CT

CITY           SKY/WX    TMP DP  RH WIND       PRES   REMARKS
Bradley INTL   RAIN      44  42  93 NE3       29.95F FOG
Hartford       RAIN      44  43  96 CALM      29.95F FOG
Danbury        LGT RAIN  43  42  97 E3        29.94S
Wtrbury/Oxford DRIZZLE   41  37  87 CALM      29.94S FOG
Bridgeport     CLOUDY    41  38  89 NE12      29.94F
Meriden        RAIN      45  42  89 N3        29.94F FOG
New Haven      CLOUDY    42  40  92 E6        29.94F
Chester        NOT AVBL
Groton         LGT RAIN  42  40  92 E6        29.96F
Wilimantic     LGT RAIN  45  42  89 E5        29.97F FOG

 IN RI

CITY           SKY/WX    TMP DP  RH WIND       PRES   REMARKS
Providence     LGT RAIN  43  39  86 SW3       30.00S FOG
Block Island   LGT RAIN  39  39 100 E12       29.97F FOG     WCI  32
Westerly       RAIN      42  40  92 E9        29.96F FOG
 IN MA

CITY           SKY/WX    TMP DP  RH WIND       PRES   REMARKS
Boston         CLOUDY    39  38  96 E8        30.00F WCI  33
Worcester      LGT RAIN  37  36  96 CALM      29.96S VSB<1/4
Westfield      LGT RAIN  43  41  93 CALM      29.95F FOG
Provincetown   CLOUDY    41  38  89 NE8       30.00S
Nantucket      CLOUDY    44  37  76 E10       29.98F
$$

ANZ330-335-338-340-345-350-353-355-282000-
COASTAL MARINE OBSERVATIONS


STATION/POSITION TIME  SKY/WX   TEMP    WIND        PRES    VSBY  WAVE
                                AIR SEA DIR/SP/G                  HT/PER
                 (UTC)          (F)     (DEG/KT/KT) (MB)    (MI)  (FT/S)
NY HARB ENTRANCE NOT AVBL
20 S FIRE ISLAND NOT AVBL
GREAT SOUTH BAY  NOT AVBL
23 SSW MONTAUK P NOT AVBL
15 E BARNEGAT LI NOT AVBL
HUDSON CANYON    NOT AVBL
KINGS POINT      1848            40 39              1013.1
EXECUTION ROCKS  NOT AVBL
CENTRAL LI SOUND NOT AVBL
EASTERN LI SOUND NOT AVBL
ROBBINS REEF     1848            44      40/ 11/ 12 1012.4
$$


>>>>>>>>>>>>>>>>>>>>>>>>>>>> KEY <<<<<<<<<<<<<<<<<<<<<<<<<<<
>                                                          <
>     SKY/WX - Sky Condition/Present Weather               <
>     TMP    - Temperature in Fahrenheit                   <
>     DP     - Dew Point in Fahrenheit                     <
>     RH     - Relative Humidity in Percent                <
>     WIND   - Direction (from) and Speed in MPH           <
>     PRES   - Mean Sea Level Pressure (inches of Hg)      <
>     WCI    - Wind Chill Index                            <
>     VSB    - VISIBILITY IN MILES                         <
>     HX     - HEAT INDEX                                  <
>     TC     - TEMPERATURE IN CELSIUS                      <
>     VRB    - VARIABLE WIND DIRECTION                     <
>                                                          <
>>>>>>>>>>>>>>>>>>>>>>>>>>>> KEY <<<<<<<<<<<<<<<<<<<<<<<<<<<




USA.gov is the U.S. government's official web portal to all federal, state and local government web resources and services.